Weather History for K40J - December, 2013

Change the Weather History Date:

Friday, December 27, 2013

  Actual Average (KCTY) Record (KCTY)
Temperature  
Mean Temperature 54 °F 53 °F  
Max Temperature 57 °F 65 °F 80 °F (2008)
Min Temperature 50 °F 40 °F 25 °F (2001)
Degree Days  
Heating Degree Days 12 13  
Month to date heating degree days 286  
Since 1 July heating degree days 454  
Cooling Degree Days 0 0  
Month to date cooling degree days 14  
Year to date cooling degree days 2616  
Growing Degree Days 4 (Base 50)    
Moisture  
Dew Point 48 °F    
Average Humidity 85    
Maximum Humidity 94    
Minimum Humidity 71    
Precipitation  
Precipitation 0.06 in 0.07 in 0.39 in (2011)
Month to date precipitation 2.24  
Year to date precipitation 48.08  
Sea Level Pressure  
Sea Level Pressure 30.30 in    
Wind  
Wind Speed 6 mph (NE)    
Max Wind Speed 9 mph    
Max Gust Speed -    
Visibility 10 miles    
Events Rain    
T = Trace of Precipitation, MM = Missing Value Source: NWS Daily Summary

Daily Weather History Graph

Daily Weather History Graph

Search for Another Location

Airport or City:

Trip Planner

Search our weather history database for the weather conditions in past years. The results will help you decide how hot, cold, wet, or windy it might be!

Date:

Astronomy

Dec. 27, 2013 Rise Set
Actual Time 7:28 AM EST 5:42 PM EST
Civil Twilight 7:02 AM EST 6:08 PM EST
Nautical Twilight 6:32 AM EST 6:38 PM EST
Astronomical Twilight 6:03 AM EST 7:07 PM EST
Moon 2:13 AM EST (12/27) 1:40 PM EST (12/27)
Length of Visible Light 11h 06m
Length of Day
10h 13m
Waning Crescent, 28% of the Moon is Illuminated
Dec 27
Waning Crescent
Jan 1
New
Jan 7
First Quarter
Jan 15
Full
Jan 24
Last Quarter

Hourly Weather History & Observations

Time (EST) Temp. Dew Point Humidity Pressure Visibility Wind Dir Wind Speed Gust Speed Precip Events Conditions
12:15 AM 50.0 °F 42.8 °F 76% 30.27 in 10.0 mi NNE 5.8 mph - N/A   Overcast
12:35 AM 50.0 °F 42.8 °F 76% 30.28 in 10.0 mi NNE 5.8 mph - N/A   Overcast
12:53 AM 51.1 °F 42.1 °F 71% 30.26 in - NNE 5.8 mph - N/A   Unknown
12:55 AM 50.0 °F 42.8 °F 76% 30.27 in 10.0 mi NE 4.6 mph - N/A   Overcast
1:15 AM 50.0 °F 42.8 °F 76% 30.26 in 10.0 mi NE 6.9 mph - N/A   Overcast
1:35 AM 50.0 °F 42.8 °F 76% 30.26 in 10.0 mi ENE 4.6 mph - N/A   Overcast
1:53 AM 51.1 °F 43.0 °F 74% 30.26 in - ENE 6.9 mph - N/A   Unknown
1:55 AM 50.0 °F 42.8 °F 76% 30.27 in 10.0 mi NE 4.6 mph - N/A   Overcast
2:15 AM 50.0 °F 42.8 °F 76% 30.27 in 10.0 mi NE 5.8 mph - N/A   Overcast
2:35 AM 50.0 °F 44.6 °F 82% 30.26 in 10.0 mi NE 6.9 mph - N/A   Overcast
2:53 AM 51.1 °F 43.0 °F 74% 30.25 in - NNE 4.6 mph - N/A   Unknown
2:55 AM 50.0 °F 44.6 °F 82% 30.26 in 10.0 mi NNE 4.6 mph - N/A   Overcast
3:15 AM 50.0 °F 44.6 °F 82% 30.27 in 10.0 mi NNE 6.9 mph - N/A Rain Light Rain
3:35 AM 50.0 °F 44.6 °F 82% 30.27 in 10.0 mi NNE 5.8 mph - N/A   Light Drizzle
3:53 AM 50.0 °F 45.0 °F 83% 30.26 in - NE 5.8 mph - N/A   Unknown
3:55 AM 50.0 °F 44.6 °F 82% 30.27 in 10.0 mi NE 4.6 mph - N/A Rain Light Rain
4:15 AM 50.0 °F 46.4 °F 87% 30.27 in 10.0 mi NE 4.6 mph - N/A   Light Drizzle
4:35 AM 50.0 °F 46.4 °F 87% 30.27 in 10.0 mi NE 5.8 mph - N/A Rain Light Rain
4:53 AM 50.0 °F 46.0 °F 86% 30.25 in - NE 4.6 mph - N/A   Unknown
4:55 AM 50.0 °F 46.4 °F 87% 30.26 in 10.0 mi NE 4.6 mph - N/A   Light Drizzle
5:15 AM 50.0 °F 46.4 °F 87% 30.26 in 10.0 mi NE 6.9 mph - N/A   Scattered Clouds
5:35 AM 50.0 °F 46.4 °F 87% 30.26 in 10.0 mi ENE 4.6 mph - N/A Rain Light Rain
5:53 AM 50.0 °F 46.0 °F 86% 30.26 in - NE 4.6 mph - N/A   Unknown
5:55 AM 50.0 °F 46.4 °F 87% 30.27 in 10.0 mi NE 4.6 mph - N/A   Light Drizzle
6:15 AM 50.0 °F 46.4 °F 87% 30.27 in 10.0 mi NE 4.6 mph - N/A   Overcast
6:35 AM 50.0 °F 46.4 °F 87% 30.28 in 10.0 mi NNE 4.6 mph - N/A   Overcast
6:53 AM 51.1 °F 46.9 °F 86% 30.27 in - NNE 4.6 mph - N/A   Unknown
6:55 AM 50.0 °F 46.4 °F 87% 30.28 in 10.0 mi NNE 5.8 mph - N/A   Overcast
7:15 AM 50.0 °F 46.4 °F 87% 30.30 in 10.0 mi North 3.5 mph - N/A   Drizzle
7:35 AM 50.0 °F 46.4 °F 87% 30.31 in 7.0 mi NNE 3.5 mph - N/A Rain Light Rain
7:53 AM 51.1 °F 46.9 °F 86% 30.30 in - NNE 5.8 mph - 0.01 in   Unknown
7:55 AM 50.0 °F 46.4 °F 87% 30.31 in 7.0 mi NNE 4.6 mph - N/A Rain Light Rain
8:15 AM 50.0 °F 46.4 °F 87% 30.32 in 7.0 mi NE 5.8 mph - N/A Rain Rain
8:35 AM 50.0 °F 48.2 °F 94% 30.33 in 10.0 mi Calm Calm - 0.01 in Rain Rain
8:53 AM 51.1 °F 46.9 °F 86% 30.33 in - NE 3.5 mph - 0.02 in   Unknown
8:55 AM 50.0 °F 48.2 °F 94% 30.34 in 7.0 mi Calm Calm - 0.01 in   Drizzle
9:15 AM 50.0 °F 48.2 °F 94% 30.34 in 7.0 mi Calm Calm - N/A Rain Rain
9:35 AM 50.0 °F 48.2 °F 94% 30.34 in 7.0 mi NE 4.6 mph - N/A   Light Drizzle
9:53 AM 51.1 °F 48.0 °F 89% 30.35 in - NNE 6.9 mph - 0.01 in   Unknown
9:55 AM 50.0 °F 48.2 °F 94% 30.36 in 10.0 mi NE 4.6 mph - 0.01 in   Drizzle
10:15 AM 50.0 °F 48.2 °F 94% 30.36 in 7.0 mi NE 4.6 mph - N/A   Light Drizzle
10:35 AM 51.8 °F 50.0 °F 94% 30.36 in 7.0 mi NNE 8.1 mph - N/A Rain Light Rain
10:53 AM 52.0 °F 48.9 °F 89% 30.35 in - NE 5.8 mph - N/A   Unknown
10:55 AM 51.8 °F 50.0 °F 94% 30.36 in 7.0 mi NE 5.8 mph - N/A Rain Light Rain
11:15 AM 51.8 °F 50.0 °F 94% 30.35 in 10.0 mi NNE 8.1 mph - N/A   Overcast
11:35 AM 51.8 °F 50.0 °F 94% 30.34 in 10.0 mi NE 5.8 mph - N/A   Overcast
11:53 AM 54.0 °F 50.0 °F 86% 30.32 in - NE 5.8 mph - 0.01 in   Unknown
11:55 AM 51.8 °F 50.0 °F 94% 30.34 in 10.0 mi NE 6.9 mph - N/A   Overcast
12:15 PM 53.6 °F 50.0 °F 88% 30.34 in 10.0 mi NE 4.6 mph - N/A Rain Light Rain
12:35 PM 53.6 °F 51.8 °F 94% 30.32 in 10.0 mi NE 5.8 mph - N/A   Overcast
12:53 PM 55.9 °F 50.0 °F 80% 30.29 in - NE 5.8 mph - N/A   Unknown
12:55 PM 53.6 °F 51.8 °F 94% 30.30 in 10.0 mi NE 6.9 mph - N/A   Overcast
1:15 PM 55.4 °F 51.8 °F 88% 30.29 in 10.0 mi NNE 5.8 mph - N/A   Overcast
1:35 PM 55.4 °F 51.8 °F 88% 30.28 in 10.0 mi NNE 6.9 mph - N/A   Overcast
1:53 PM 57.0 °F 51.1 °F 81% 30.26 in - NE 6.9 mph - N/A   Unknown
1:55 PM 55.4 °F 51.8 °F 88% 30.27 in 10.0 mi NE 5.8 mph - N/A   Overcast
2:15 PM 55.4 °F 51.8 °F 88% 30.27 in 10.0 mi ENE 6.9 mph - N/A   Overcast
2:35 PM 55.4 °F 51.8 °F 88% 30.27 in 10.0 mi NE 4.6 mph - 0.01 in Rain Light Rain
2:53 PM 57.0 °F 51.1 °F 81% 30.27 in - NE 6.9 mph - N/A   Unknown
2:55 PM 55.4 °F 51.8 °F 88% 30.28 in 10.0 mi NE 5.8 mph - 0.01 in   Overcast
3:15 PM 55.4 °F 51.8 °F 88% 30.28 in 10.0 mi NNE 6.9 mph - N/A   Overcast
3:35 PM 55.4 °F 51.8 °F 88% 30.28 in 10.0 mi NNE 6.9 mph - N/A Rain Light Rain
3:53 PM 57.0 °F 51.1 °F 81% 30.27 in - NE 5.8 mph - N/A   Unknown
3:55 PM 55.4 °F 51.8 °F 88% 30.28 in 10.0 mi NNE 6.9 mph - N/A   Overcast
4:15 PM 55.4 °F 51.8 °F 88% 30.28 in 10.0 mi NNE 5.8 mph - N/A   Overcast
4:35 PM 55.4 °F 51.8 °F 88% 30.28 in 10.0 mi NNE 5.8 mph - N/A   Mostly Cloudy
4:53 PM 57.0 °F 51.1 °F 81% 30.27 in - NNE 6.9 mph - N/A   Unknown
4:55 PM 55.4 °F 51.8 °F 88% 30.28 in 10.0 mi NE 6.9 mph - N/A   Mostly Cloudy
5:15 PM 55.4 °F 51.8 °F 88% 30.29 in 10.0 mi NE 8.1 mph - N/A   Overcast
5:35 PM 55.4 °F 51.8 °F 88% 30.30 in 10.0 mi NE 5.8 mph - N/A Rain Rain
5:53 PM 55.9 °F 52.0 °F 87% 30.28 in - NE 5.8 mph - N/A   Unknown
5:55 PM 53.6 °F 51.8 °F 94% 30.30 in 10.0 mi NE 5.8 mph - N/A   Light Drizzle
6:15 PM 53.6 °F 51.8 °F 94% 30.29 in 10.0 mi NE 8.1 mph - N/A   Overcast
6:35 PM 53.6 °F 51.8 °F 94% 30.29 in 10.0 mi NE 6.9 mph - N/A   Overcast
6:53 PM 55.0 °F 50.0 °F 83% 30.29 in - NE 6.9 mph - N/A   Unknown
6:55 PM 53.6 °F 50.0 °F 88% 30.30 in 10.0 mi NE 6.9 mph - N/A   Overcast
7:15 PM 53.6 °F 50.0 °F 88% 30.30 in 10.0 mi NE 5.8 mph - N/A   Mostly Cloudy
7:35 PM 53.6 °F 50.0 °F 88% 30.30 in 10.0 mi ENE 4.6 mph - N/A   Mostly Cloudy
7:53 PM 54.0 °F 48.9 °F 83% 30.31 in - NE 6.9 mph - N/A   Unknown
7:55 PM 53.6 °F 50.0 °F 88% 30.32 in 7.0 mi NE 5.8 mph - N/A   Mostly Cloudy
8:15 PM 53.6 °F 50.0 °F 88% 30.34 in 10.0 mi NE 5.8 mph - N/A   Overcast
8:35 PM 53.6 °F 50.0 °F 88% 30.34 in 10.0 mi NE 5.8 mph - N/A   Overcast
8:53 PM 54.0 °F 48.0 °F 80% 30.32 in - NE 5.8 mph - N/A   Unknown
8:55 PM 53.6 °F 50.0 °F 88% 30.34 in 10.0 mi ENE 4.6 mph - N/A   Overcast
9:15 PM 53.6 °F 48.2 °F 82% 30.33 in 10.0 mi NE 5.8 mph - N/A   Overcast
9:35 PM 53.6 °F 48.2 °F 82% 30.33 in 10.0 mi NE 6.9 mph - N/A   Overcast
9:53 PM 54.0 °F 48.0 °F 80% 30.32 in - NE 8.1 mph - N/A   Unknown
9:55 PM 53.6 °F 48.2 °F 82% 30.33 in 10.0 mi ENE 5.8 mph - N/A   Overcast
10:15 PM 53.6 °F 48.2 °F 82% 30.33 in 10.0 mi ENE 6.9 mph - N/A   Overcast
10:35 PM 53.6 °F 46.4 °F 77% 30.33 in 10.0 mi ENE 5.8 mph - N/A   Overcast
10:53 PM 55.0 °F 46.9 °F 74% 30.31 in - NE 5.8 mph - N/A   Unknown
10:55 PM 53.6 °F 46.4 °F 77% 30.32 in 10.0 mi ENE 9.2 mph - N/A   Overcast
11:15 PM 53.6 °F 46.4 °F 77% 30.32 in 10.0 mi NE 6.9 mph - N/A   Overcast
11:35 PM 53.6 °F 46.4 °F 77% 30.31 in 10.0 mi NE 4.6 mph - N/A   Overcast
11:53 PM 54.0 °F 45.0 °F 72% 30.30 in - NE 5.8 mph - N/A   Unknown
11:55 PM 53.6 °F 46.4 °F 77% 30.31 in 10.0 mi NE 4.6 mph - N/A   Overcast